Location: Apollinopolis Magna
(24.9792°N, 32.8772°E)
Time: 04:33:04
(UTC+00:00)

Delta 7925 Rocket - Pass Details

Date: 02 March 2021
Orbit: 645 x 1648 km, 26.3° (Epoch: 12 April)

Event Time Altitude Azimuth Distance (km) Brightness Sun altitude
Rises 16:31:12 0° 265° (W) 3,100 9.0 -9.8°
Reaches altitude 10° 16:33:43 10° 266° (W) 2,106 7.4 -10.4°
Maximum altitude 16:38:30 81° 354° (N) 652 3.1 -11.5°
Enters shadow 16:41:59 17° 81° (E) 1,600 4.5 -12.3°
